sat.trackr.live / text

‹ back to catalog

STARLINK-11131 [DTC]

NORAD 59756 · 2024-091D

PAYLOAD ACTIVE UNKNOWN

§ Identity

Operator
Country
US
Launch date
2024-05-14
Launch site
AFWTR
Launch vehicle
Mass (kg)
RCS (m²)

Purposes: comms

External: N2YO · Heavens-Above · Gunter

§ Orbital elements

Epoch: 2026-09-21T16:18:53.195904Z

Period
91.74 min
Inclination
53.1583°
Eccentricity
0.0000931
Mean motion
15.69705756 rev/d
Perigee alt
359.1 km
Apogee alt
360.4 km
Semi-major
6,737.9 km
B*
2.6140e-6
RAAN
320.2639°
Arg perigee
75.5399°
Mean anomaly
284.5722°
Rev number
13,629

§ Raw data

STARLINK-11131 [DTC]1 59756U 24091D   26264.67978236 -.00000272  00000+0  26140-5 0  99952 59756  53.1583 320.2639 0000931  75.5399 284.5722 15.69705756136297

JSON: /api/v1/satellites/59756 · /tle

For live sub-satellite position, see the globe view (requires WebGL).

§ Visibility from observer

Set your observer location to see the next 7 days of passes ≥ 10°. The values pass through the URL so the page stays shareable.

No JS? Fill the form by hand. The geolocation button needs JavaScript.